TimeEDT,TemperatureF,Dew PointF,Humidity,Sea Level PressureIn,VisibilityMPH,Wind Direction,Wind SpeedMPH,Gust SpeedMPH,PrecipitationIn,Events,Conditions,WindDirDegrees,DateUTC
12:15 AM,41.0,23.0,49,29.88,10.0,SSW,3.5,-,N/A,,Clear,200,2012-11-02 04:15:00
6:55 AM,33.8,28.4,81,29.88,10.0,South,3.5,-,N/A,,Overcast,190,2012-11-02 10:55:00
7:35 AM,37.4,28.4,70,29.87,10.0,Calm,Calm,-,N/A,,Overcast,0,2012-11-02 11:35:00
7:55 AM,37.4,28.4,70,29.87,10.0,SSW,3.5,-,N/A,,Overcast,200,2012-11-02 11:55:00
8:15 AM,39.2,28.4,65,29.88,10.0,SW,4.6,-,N/A,,Overcast,230,2012-11-02 12:15:00
8:35 AM,41.0,30.2,65,29.88,10.0,SW,3.5,-,N/A,,Overcast,220,2012-11-02 12:35:00
8:55 AM,42.8,30.2,61,29.88,10.0,Calm,Calm,-,N/A,,Overcast,0,2012-11-02 12:55:00
9:15 AM,44.6,30.2,57,29.88,10.0,SW,3.5,-,N/A,,Overcast,230,2012-11-02 13:15:00
9:35 AM,46.4,30.2,53,29.88,10.0,SW,4.6,-,N/A,,Scattered Clouds,230,2012-11-02 13:35:00
9:55 AM,48.2,32.0,54,29.88,10.0,West,3.5,-,N/A,,Clear,260,2012-11-02 13:55:00
10:15 AM,50.0,32.0,50,29.87,10.0,WSW,3.5,-,N/A,,Clear,240,2012-11-02 14:15:00
10:35 AM,50.0,32.0,50,29.87,10.0,Calm,Calm,-,N/A,,Scattered Clouds,0,2012-11-02 14:35:00
10:55 AM,51.8,33.8,50,29.86,10.0,Calm,Calm,-,N/A,,Mostly Cloudy,0,2012-11-02 14:55:00
11:15 AM,57.2,32.0,38,29.85,10.0,SW,10.4,-,N/A,,Scattered Clouds,230,2012-11-02 15:15:00
11:35 AM,59.0,32.0,36,29.85,10.0,WSW,9.2,-,N/A,,Scattered Clouds,250,2012-11-02 15:35:00
11:55 AM,59.0,33.8,39,29.85,10.0,SW,5.8,-,N/A,,Scattered Clouds,230,2012-11-02 15:55:00
12:15 PM,59.0,33.8,39,29.84,10.0,WSW,11.5,17.3,N/A,,Scattered Clouds,250,2012-11-02 16:15:00
12:35 PM,59.0,33.8,39,29.84,10.0,WSW,11.5,16.1,N/A,,Scattered Clouds,250,2012-11-02 16:35:00
12:55 PM,59.0,33.8,39,29.84,10.0,West,9.2,-,N/A,,Mostly Cloudy,270,2012-11-02 16:55:00
1:15 PM,59.0,35.6,42,29.84,10.0,West,6.9,-,N/A,,Overcast,280,2012-11-02 17:15:00
1:35 PM,60.8,37.4,42,29.84,10.0,West,4.6,-,N/A,,Mostly Cloudy,280,2012-11-02 17:35:00
1:55 PM,60.8,37.4,42,29.84,10.0,West,6.9,-,N/A,,Mostly Cloudy,280,2012-11-02 17:55:00
2:15 PM,62.6,37.4,39,29.84,10.0,WNW,8.1,-,N/A,,Scattered Clouds,300,2012-11-02 18:15:00
2:35 PM,62.6,35.6,37,29.84,10.0,WSW,11.5,16.1,N/A,,Clear,250,2012-11-02 18:35:00
2:55 PM,64.4,35.6,34,29.83,10.0,West,10.4,-,N/A,,Clear,260,2012-11-02 18:55:00
3:15 PM,64.4,35.6,34,29.83,10.0,West,11.5,21.9,N/A,,Clear,270,2012-11-02 19:15:00
3:35 PM,64.4,33.8,32,29.83,10.0,West,10.4,20.7,N/A,,Clear,270,2012-11-02 19:35:00
3:55 PM,64.4,32.0,30,29.84,10.0,WNW,10.4,17.3,N/A,,Clear,300,2012-11-02 19:55:00
4:15 PM,62.6,32.0,32,29.85,10.0,WNW,11.5,16.1,N/A,,Clear,300,2012-11-02 20:15:00
4:35 PM,60.8,30.2,31,29.85,10.0,WNW,11.5,16.1,N/A,,Clear,300,2012-11-02 20:35:00
4:55 PM,60.8,32.0,34,29.86,10.0,WNW,9.2,-,N/A,,Clear,290,2012-11-02 20:55:00
5:15 PM,60.8,32.0,34,29.87,10.0,WNW,4.6,-,N/A,,Clear,300,2012-11-02 21:15:00
5:35 PM,60.8,32.0,34,29.87,10.0,NW,8.1,-,N/A,,Clear,310,2012-11-02 21:35:00
5:55 PM,59.0,32.0,36,29.88,10.0,NW,6.9,-,N/A,,Clear,310,2012-11-02 21:55:00
6:15 PM,59.0,32.0,36,29.89,10.0,NW,5.8,-,N/A,,Clear,320,2012-11-02 22:15:00
6:35 PM,57.2,32.0,38,29.90,10.0,NW,5.8,-,N/A,,Clear,310,2012-11-02 22:35:00
6:55 PM,55.4,32.0,41,29.91,10.0,NW,6.9,-,N/A,,Clear,310,2012-11-02 22:55:00
7:15 PM,55.4,30.2,38,29.92,10.0,NW,9.2,-,N/A,,Clear,320,2012-11-02 23:15:00
7:35 PM,55.4,30.2,38,29.92,10.0,NW,8.1,-,N/A,,Clear,320,2012-11-02 23:35:00
7:55 PM,53.6,30.2,41,29.92,10.0,NNW,5.8,-,N/A,,Clear,340,2012-11-02 23:55:00
8:15 PM,53.6,28.4,38,29.94,10.0,NW,4.6,-,N/A,,Clear,320,2012-11-03 00:15:00
8:35 PM,53.6,28.4,38,29.94,10.0,NW,4.6,-,N/A,,Clear,310,2012-11-03 00:35:00
8:55 PM,51.8,28.4,41,29.94,10.0,WNW,5.8,-,N/A,,Clear,300,2012-11-03 00:55:00
9:15 PM,51.8,28.4,41,29.94,10.0,NW,3.5,-,N/A,,Clear,310,2012-11-03 01:15:00
9:35 PM,48.2,30.2,50,29.95,10.0,Calm,Calm,-,N/A,,Clear,0,2012-11-03 01:35:00
9:55 PM,51.8,28.4,41,29.96,10.0,NW,4.6,-,N/A,,Clear,320,2012-11-03 01:55:00
10:15 PM,51.8,28.4,41,29.96,10.0,NW,5.8,-,N/A,,Clear,310,2012-11-03 02:15:00
10:35 PM,50.0,28.4,43,29.97,10.0,WNW,3.5,-,N/A,,Clear,300,2012-11-03 02:35:00
10:55 PM,42.8,30.2,61,29.97,10.0,Calm,Calm,-,N/A,,Clear,0,2012-11-03 02:55:00
11:15 PM,42.8,30.2,61,29.97,10.0,Calm,Calm,-,N/A,,Clear,0,2012-11-03 03:15:00
11:35 PM,44.6,30.2,57,29.98,10.0,Calm,Calm,-,N/A,,Clear,0,2012-11-03 03:35:00
11:55 PM,42.8,30.2,61,29.98,10.0,Calm,Calm,-,N/A,,Clear,0,2012-11-03 03:55:00